Flag for U.S.A. Weather past 2 weeks in Unalaska, Alaska, U.S.A.

Now
48 °F

Light rain. Fog.


Feels Like: 43 °F
Forecast: 48 / 52 °F
Wind: 10 mph from Northwest

Location: Dutch Harbor

Current Time: Sep 19, 2014 at 2:23:59 PM

Latest Report: Sep 19, 2014 at 1:56 PM


Visibility: 6 mi

Pressure: 29.80 "Hg

Humidity: 83%

Dew point: 43 °F

Location of UnalaskaLocation

Historic Weather in Unalaska — Graph

°F

Unalaska temperature yesterday

Maximum temperature yesterday: 52 °F (at 1:56 AM)
Minimum temperature yesterday: 48 °F (at 11:56 AM)
Average temperature yesterday: 50 °F

Past Weeks' High & Low Weather Summary

 TemperatureHumidityPressure
High62 °F (Sep 10, 2:56 PM)97% (Sep 11, 6:56 PM)30.01 "Hg (Sep 11, 6:56 PM)
Low47 °F (Sep 5, 7:56 AM)59% (Sep 5, 4:57 PM)28.87 "Hg (Sep 13, 12:00 PM)
Average53 °F78%29.56 "Hg
* Reported Sep 4 12:56 PM — Sep 19 12:56 PM, Unalaska, Weather by CustomWeather, © 2014

Note: Actual official high and low records may vary slightly from our data, if they occured in-between our weather recording intervals... More about our weather records

Advertising

Unalaska weather history for previous 24 hours

 ConditionsComfort  
Time TempWeatherWind HumidityBarometerVisibility
12:56 PM
Sep 19
50 °FCloudy.15 mph74%29.78 "Hg10 mi
11:56 AM48 °FLight rain. Cloudy.17 mph80%29.77 "Hg8 mi
10:56 AM49 °FMore clouds than sun.17 mph74%29.76 "Hg9 mi
9:56 AM49 °FMore clouds than sun.17 mph77%29.75 "Hg10 mi
8:56 AM48 °FLight rain. Overcast.21 mph83%29.72 "Hg7 mi
7:56 AM49 °FMostly cloudy.17 mph77%29.69 "Hg10 mi
6:56 AM49 °FMostly cloudy.15 mph80%29.67 "Hg10 mi
5:56 AM51 °FOvercast.21 mph71%29.65 "Hg10 mi
4:56 AM51 °FMostly cloudy.17 mph71%29.65 "Hg10 mi
3:56 AM51 °FMostly cloudy.15 mph71%29.63 "Hg10 mi
2:56 AM50 °FOvercast.22 mph83%29.62 "Hg10 mi
1:56 AM51 °FOvercast.16 mph83%29.60 "Hg10 mi
12:56 AM51 °FMostly cloudy.22 mph83%29.59 "Hg10 mi
11:56 PM
Sep 18
50 °FLight rain. Overcast.21 mph86%29.57 "Hg10 mi
10:56 PM50 °FLight rain. Overcast.15 mph83%29.55 "Hg10 mi
9:56 PM49 °FOvercast.9 mph84%29.55 "Hg9 mi
8:56 PM49 °FOvercast.12 mph77%29.54 "Hg10 mi
7:56 PM50 °FMostly cloudy.12 mph66%29.53 "Hg10 mi
6:56 PM51 °FPartly sunny.12 mph66%29.52 "Hg10 mi
5:56 PM50 °FPartly sunny.10 mph71%29.51 "Hg10 mi
4:56 PM50 °FPartly sunny.12 mph71%29.50 "Hg10 mi
3:56 PM50 °FPartly sunny.13 mph74%29.50 "Hg10 mi
2:56 PM49 °FPartly sunny.9 mph74%29.51 "Hg10 mi
Weather by CustomWeather, © 2014

See weather overviewHow to use our weather pages